Regional Weather Roundup
Issued by NWS

Home | Current Version | Previous Version | Graphics & Text | Print | Product List | Glossary On
Versions: 1 2 3 4 5 6 7 8 9 10 11 12 13 14 15 16 17 18 19 20 21 22 23 24 25 26 27 28 29 30 31 32 33 34 35 36 37 38 39 40 41 42 43 44 45 46 47 48 49 50
000
ASUS44 KMEG 210610
RWRTN
TENNESSEE HOURLY STATE WEATHER ROUNDUP
NATIONAL WEATHER SERVICE MEMPHIS TN
1200 AM CST WED FEB 21 2018

TNZ002-004-019-021-049-052-054-088>092-210700-
WEST TENNESSEE

CITY           SKY/WX    TMP DP  RH WIND       PRES   REMARKS
MEMPHIS INTL   MOCLDY    72  63  73 S16       30.10R
NWS MEMPHIS      N/A     72 N/A N/A MISG        N/A
JACKSON        FAIR      73  63  70 S14G26    30.13R
DYERSBURG      FAIR      73  63  70 S16G24    30.08R
SOMERVILLE     PTCLDY    72  63  73 S14G21    30.12R
COVINGTON      MOCLDY    72  63  73 S17G26    30.10R
UNION CITY     CLEAR     72  63  73 S18G25    30.07R
BOLIVAR        MOCLDY    72  63  73 S14G22    30.14R
PARIS          PTCLDY    72  61  68 S17G25    30.09R
HUNTINGDON     PTCLDY    72  61  68 S21G30    30.10R
LEXINGTON      PTCLDY    72  61  68 S13G20    30.15S
SELMER         MOCLDY    72  63  73 S12G20    30.16R
SAVANNAH       CLOUDY    72  63  73 S13G21    30.17R
$$

TNZ008-025-027-028-033-062-065-066-210700-
NORTH MIDDLE TENNESSEE

CITY           SKY/WX    TMP DP  RH WIND       PRES   REMARKS
NASHVILLE      FAIR      71  61  70 S18G26    30.20R
PORTLAND       CLEAR     70  61  73 S18G26    30.17S
CLARKSVILLE    FAIR      72  58  61 S20G32    30.12S
SMYRNA         FAIR      70  62  76 S12       30.22R
COOKEVILLE     MOCLDY    68  61  77 S8G15     30.26S
GALLATIN       PTCLDY    72  63  73 S13G26    30.22R
CROSSVILLE     CLOUDY    66  58  75 S9G24     30.32S
$$

TNZ061-075-076-078-094-096-097-210700-
SOUTH MIDDLE TENNESSEE

CITY           SKY/WX    TMP DP  RH WIND       PRES   REMARKS
FAYETTEVILLE   CLOUDY    68  63  83 S13G18    30.26S
TULLAHOMA      PTCLDY    68  61  77 S14G21    30.25S
WINCHESTER     MOCLDY    70  61  73 S16       30.28S
MCMINNVILLE    MOCLDY    70  61  73 S15G21    30.26S
COLUMBIA       MOCLDY    72  66  83 S14G24    30.20R
SHELBYVILLE    PTCLDY    70  63  78 S13G20    30.24S
$$

TNZ017-018-042-046-047-210700-
NORTHEAST TENNESSEE

CITY           SKY/WX    TMP DP  RH WIND       PRES   REMARKS
TRI CITIES     MOCLDY    65  55  70 SE7       30.35S
ELIZABETHTON   FAIR      55  52  88 CALM      30.37F
$$

TNZ012-013-036-069-073-074-210700-
CENTRAL EAST TENNESSEE

CITY           SKY/WX    TMP DP  RH WIND       PRES   REMARKS
KNOXVILLE      MOCLDY    66  57  72 W5        30.29S
OAK RIDGE      MOCLDY    67  60  78 CALM      30.31S
DOWNTOWN KNOXV MOCLDY    57  54  88 CALM      30.30S
GATLINBURG     MOCLDY    63  54  72 CALM      30.30S
MORRISTOWN     CLOUDY    66  54  63 CALM      30.32R
JACKSBORO      CLOUDY    68  59  73 S8        30.33S
$$

TNZ083-085-099-210700-
SOUTHEAST TENNESSEE

CITY           SKY/WX    TMP DP  RH WIND       PRES   REMARKS
CHATTANOOGA    MOCLDY    69  61  75 S8G17     30.32S
$$

SKY/WX REPORTED AS FAIR MEANS FEW OR NO CLOUDS BELOW
12 THOUSAND FEET.





USA.gov is the U.S. government's official web portal to all federal, state and local government web resources and services.